Notices

What's New in latest Release from April 7th, 2021:

- Updated Glossary, including Speed of Maximum Gust, and Total Hourly Precipitation

- Updated national and regional climate services offices contacts and prices information

- Addition of station inventory lists for 1981-2010, 1971-2000, and 1961-1990 Normals.

If you haven't already, please take our survey and provide feedback about our website: https://eccc.sondage-survey.ca/f/LanguageSelection.aspx?s=442ca660-fcf1-47c0-95a9-59707d6fd709

Hourly Data Report for October 10, 2006

TORONTO CITY
ONTARIO

43°40'00.000" N
79°24'00.000" W
112.50 m
6158355
71508
XTO

Download Data

Hourly Data (October 2006)
Hourly Data Report for October 10, 2006
TIME
LST
Temp Definition
°C
Dew Point Definition
°C
Rel Hum Definition
%
Precip. Amount Definition
mm

Wind Dir Definition
10's deg

Wind Spd Definition
km/h
Visibility Definition
km
Stn Press Definition
kPa
Hmdx Definition


Wind Chill Definition


Weather Definition


00:00 13.5 8.4 71   LegendMM LegendMM   100.66     LegendNANA
01:00 13.4 7.9 69   LegendMM LegendMM   100.66     LegendNANA
02:00 13.3 7.4 67   LegendMM LegendMM   100.64     LegendNANA
03:00 12.9 6.2 64   LegendMM LegendMM   100.64     LegendNANA
04:00 12.2 6.2 67   LegendMM LegendMM   100.63     LegendNANA
05:00 12.0 5.5 64   LegendMM LegendMM   100.63     LegendNANA
06:00 11.7 4.5 61   LegendMM LegendMM   100.68     LegendNANA
07:00 11.1 4.2 62   LegendMM LegendMM   100.69     LegendNANA
08:00 11.4 4.4 62   LegendMM LegendMM   100.68     LegendNANA
09:00 12.3 3.5 55   LegendMM LegendMM   100.73     LegendNANA
10:00 13.2 4.0 54   LegendMM LegendMM   100.69     LegendNANA
11:00 13.4 5.4 58   LegendMM LegendMM   100.63     LegendNANA
12:00 14.0 6.0 59   LegendMM LegendMM   100.59     LegendNANA
13:00 14.0 6.5 61   LegendMM LegendMM   100.51     LegendNANA
14:00 13.8 6.5 61   LegendMM LegendMM   100.43     LegendNANA
15:00 13.8 6.6 62   LegendMM LegendMM   100.37     LegendNANA
16:00 13.2 6.5 64   LegendMM LegendMM   100.35     LegendNANA
17:00 12.9 7.0 67   LegendMM LegendMM   100.29     LegendNANA
18:00 12.9 7.3 69   LegendMM LegendMM   100.28     LegendNANA
19:00 13.2 8.2 72   LegendMM LegendMM   100.20     LegendNANA
20:00 13.2 8.8 75   LegendMM LegendMM   100.16     LegendNANA
21:00 13.3 8.8 74   LegendMM LegendMM   100.08     LegendNANA
22:00 13.3 8.9 75   LegendMM LegendMM   100.01     LegendNANA
23:00 13.2 8.9 75   LegendMM LegendMM   99.87     LegendNANA

Notes on Data Quality.

Legend

  • E = Estimated
  • M = Missing
  • NA = Not Available*
  • [empty] = Indicates an unobserved value
Date modified: